[[{"header":{"parameterUnit":"m.s-1","parameterCategory":1,"la1":30.2991,"la2":30.254,"lo1":-89.0895,"lo2":-89.0444,"dy":0.0017,"dx":0.0017,"nx":28,"ny":28,"refTime":"2024-07-01T03:00:00:Z","depth":0,"parameterNumber":2,"parameterNumberName":"U-component_of_WINDS"},"data":[0,0,0,0,0,0,0,0,0,0,0,0,0,0,0,0,0,0,0,0,0,0,0,0,0,0,0,0,0,0,0,0,0,0,0,0,0,0,0,0,0,0,0,0,0,0,0,0,0,0,0,0,0,0,0,0,0,0,-0.5194,-0.5194,0,-0.5191,-0.519,-0.519,-0.5228,-0.5229,-0.523,-0.5231,-0.5224,-0.5223,-0.5222,0,0,0,0,0,0,0,0,0,0,0,0,0,-0.523,-0.523,-0.5194,-0.5194,-0.5194,-0.5191,-0.519,-0.519,-0.5228,-0.5229,-0.523,-0.5231,-0.5224,-0.5223,-0.5222,0,0,0,0,0,0,0,0,0,0,0,0,0,-0.5219,-0.5229,-0.5194,-0.5212,-0.5214,-0.5191,-0.519,-0.519,-0.5227,-0.5229,-0.523,-0.5232,-0.5225,-0.5223,-0.5221,-0.518,0,0,-0.5216,-0.5215,0,0,0,0,0,0,0,0,-0.522,-0.5218,-0.5209,-0.5211,-0.5213,-0.5211,-0.5201,-0.5187,-0.5227,-0.5222,-0.5231,-0.5233,-0.5218,-0.5217,-0.5213,-0.5179,-0.5179,-0.5216,-0.5215,-0.5214,-0.5214,0,0,0,0,0,0,0,-0.5221,-0.5218,-0.5192,-0.5209,-0.5211,-0.522,-0.522,-0.5198,-0.5211,-0.5223,-0.5225,-0.5225,-0.5219,-0.5215,-0.5213,-0.5179,-0.5216,-0.5214,-0.5213,-0.5213,-0.5111,-0.511,0,0,0,0,0,0,-0.5219,-0.5219,-0.5193,-0.5192,-0.522,-0.5218,-0.5218,-0.521,-0.5212,-0.5214,-0.5223,-0.5226,-0.5217,-0.5215,-0.5213,-0.5164,-0.5214,-0.5213,-0.5212,-0.5113,-0.5111,-0.5109,0,0,0,0,0,0,-0.522,-0.5217,-0.5193,-0.5206,-0.5204,-0.5216,-0.5206,-0.5209,-0.5204,-0.5212,-0.5214,-0.5216,-0.5218,-0.5215,-0.5188,-0.5164,-0.5212,-0.521,-0.5115,-0.5112,-0.511,-0.5066,0,0,0,0,0,0,-0.5221,-0.5217,-0.5201,-0.5206,-0.5203,-0.5168,-0.5205,-0.5208,-0.5202,-0.5206,-0.5206,-0.5208,-0.5219,-0.519,-0.5186,-0.5163,-0.5209,-0.5117,-0.5114,-0.5111,-0.5069,-0.5062,-0.5056,0,0,0,0,0,-0.5222,-0.5188,-0.52,-0.5197,-0.5184,-0.5167,-0.5165,-0.518,-0.52,-0.5184,-0.5189,-0.5208,-0.5168,-0.5187,-0.5183,-0.5159,-0.5119,-0.5115,-0.5111,-0.5072,-0.5064,-0.5056,0,0,0,0,0,0,-0.5178,-0.5189,-0.5202,-0.5169,-0.5167,-0.5173,-0.5153,-0.517,-0.5161,-0.5165,-0.5183,-0.5182,-0.5152,-0.5153,-0.5174,-0.5119,-0.5147,-0.5142,-0.5119,-0.511,-0.5104,-0.5103,-0.5207,0,0,0,0,0,-0.5165,-0.5151,-0.5161,-0.513,-0.5129,-0.5141,-0.5134,-0.5146,-0.5144,-0.5143,-0.5146,-0.5143,-0.513,-0.512,-0.5109,-0.5071,-0.5071,-0.5052,-0.5045,-0.504,-0.5035,-0.5015,-0.5006,-0.5097,-0.5097,-0.5097,0,0,-0.5137,-0.5141,-0.5131,-0.5122,-0.5121,-0.5106,-0.514,-0.5122,-0.511,-0.514,-0.5114,-0.5117,-0.5114,-0.5081,-0.5067,-0.5081,-0.501,-0.5035,-0.503,-0.5028,-0.501,-0.5001,-0.4994,-0.5094,-0.5095,-0.5095,0,0,-0.5078,-0.508,-0.5055,-0.5054,-0.5054,-0.5063,-0.5057,-0.5062,-0.5065,-0.504,-0.5062,-0.5049,-0.5026,-0.5023,-0.5019,-0.4961,-0.4977,-0.4957,-0.492,-0.4901,-0.4893,-0.4887,-0.4866,-0.4858,-0.4952,-0.4952,-0.4952,0,-0.5042,-0.502,-0.5039,-0.502,-0.5015,-0.5044,-0.5018,-0.5017,-0.5012,-0.5008,-0.5024,-0.4997,-0.4997,-0.4964,-0.495,-0.4946,-0.4939,-0.4955,-0.4893,-0.4887,-0.4881,-0.4861,-0.4853,-0.4949,-0.495,-0.495,-0.495,0,-0.4976,-0.4961,-0.4941,-0.4937,-0.4931,-0.4908,-0.4923,-0.4914,-0.4927,-0.4934,-0.4909,-0.4911,-0.49,-0.4894,-0.4906,-0.4863,-0.4871,-0.489,-0.4918,-0.487,-0.4851,-0.4843,-0.4946,-0.4947,-0.4947,-0.4948,0,0,-0.4886,-0.4896,-0.4888,-0.4887,-0.489,-0.4878,-0.4858,-0.4849,-0.484,-0.4837,-0.4819,-0.4801,-0.4819,-0.4814,-0.4826,-0.4809,-0.4763,-0.483,-0.483,-0.4817,-0.4714,-0.4699,-0.469,-0.4775,-0.4773,-0.4772,-0.4714,0,-0.4828,-0.4793,-0.4811,-0.4774,-0.476,-0.4788,-0.477,-0.4769,-0.4776,-0.4765,-0.4772,-0.4758,-0.4784,-0.4781,-0.4765,-0.4771,-0.4742,-0.4776,-0.4757,-0.4756,-0.4755,-0.468,-0.4663,-0.4608,-0.4707,-0.4706,-0.4705,0,-0.4754,-0.4749,-0.4711,-0.4718,-0.4713,-0.4696,-0.469,-0.4679,-0.468,-0.4686,-0.4682,-0.4698,-0.4678,-0.4708,-0.468,-0.4703,-0.4696,-0.4698,-0.4697,-0.4693,-0.4726,-0.4673,-0.4591,-0.4582,-0.4694,-0.4695,-0.4695,0,-0.4691,-0.4675,-0.465,-0.4649,-0.4657,-0.4644,-0.4647,-0.4649,-0.4643,-0.4638,-0.4634,-0.4626,-0.4621,-0.4614,-0.4628,-0.4649,-0.4598,-0.4629,-0.4601,-0.4601,-0.4587,-0.4588,-0.4501,-0.4586,-0.4586,-0.4586,-0.4587,0,-0.4622,-0.4597,-0.4622,-0.4607,-0.458,-0.4601,-0.4574,-0.4579,-0.4582,-0.4567,-0.4592,-0.4577,-0.4598,-0.4586,-0.4597,-0.4571,-0.4569,-0.4573,-0.4575,-0.4569,-0.4569,-0.4564,-0.4567,-0.4584,-0.4585,-0.4585,-0.4586,0,-0.4546,-0.4562,-0.4536,-0.4547,-0.4549,-0.4529,-0.4537,-0.4523,-0.4533,-0.4515,-0.4512,-0.4526,-0.4513,-0.4527,-0.4515,-0.4523,-0.4488,-0.4497,-0.4488,-0.449,-0.4461,-0.4463,-0.4367,-0.4355,-0.4449,-0.4448,-0.4447,0,-0.45,-0.4482,-0.4491,-0.4484,-0.4486,-0.4474,-0.4468,-0.4489,-0.4482,-0.4483,-0.4468,-0.4458,-0.445,-0.4428,-0.4437,-0.4428,-0.4436,-0.4404,-0.4435,-0.4429,-0.4434,-0.4434,-0.4432,-0.4396,-0.4395,-0.4394,-0.4393,0,-0.4416,-0.4426,-0.4418,-0.4413,-0.4406,-0.4403,-0.4401,-0.4394,-0.4416,-0.4407,-0.4395,-0.4389,-0.4378,-0.4367,-0.4361,-0.4363,-0.4381,-0.4384,-0.4377,-0.4369,-0.4364,-0.4365,-0.4469,-0.4385,-0.4386,-0.4387,-0.4387,-0.4387,-0.4353,-0.4338,-0.4343,-0.4333,-0.4335,-0.4334,-0.4321,-0.433,-0.4321,-0.4314,-0.4327,-0.4312,-0.4314,-0.4308,-0.4308,-0.4296,-0.4309,-0.4299,-0.4296,-0.4293,-0.4288,-0.4368,-0.4295,-0.4295,-0.4295,-0.4296,-0.4296,0,-0.4269,-0.4275,-0.4266,-0.4264,-0.4257,-0.4278,-0.4277,-0.4269,-0.4256,-0.4257,-0.425,-0.4236,-0.4226,-0.4236,-0.4227,-0.4216,-0.4224,-0.4213,-0.4212,-0.4212,-0.4277,-0.4283,-0.4206,-0.4206,-0.4206,-0.4206,-0.4206,-0.4206,-0.4225,-0.4202,-0.4212,-0.419,-0.4195,-0.4181,-0.4179,-0.4178,-0.4179,-0.4163,-0.4155,-0.4162,-0.4167,-0.4159,-0.4151,-0.4154,-0.4149,-0.4134,-0.414,-0.4199,-0.4208,-0.4216,-0.4222,-0.4133,-0.4133,-0.4076,-0.4076,-0.4075]},{"header":{"parameterUnit":"m.s-1","parameterCategory":1,"la1":30.2991,"la2":30.254,"lo1":-89.0895,"lo2":-89.0444,"dy":0.0017,"dx":0.0017,"nx":28,"ny":28,"refTime":"2024-07-01T03:00:00:Z","depth":0,"parameterNumber":3,"parameterNumberName":"V-component_of_WINDS"},"data":[0,0,0,0,0,0,0,0,0,0,0,0,0,0,0,0,0,0,0,0,0,0,0,0,0,0,0,0,0,0,0,0,0,0,0,0,0,0,0,0,0,0,0,0,0,0,0,0,0,0,0,0,0,0,0,0,0,0,3.9839,3.984,0,3.9918,3.9919,3.9919,3.9891,3.9889,3.9888,3.9886,3.996,3.9963,3.9967,0,0,0,0,0,0,0,0,0,0,0,0,0,3.9658,3.9661,3.9839,3.984,3.9841,3.9918,3.9919,3.992,3.9891,3.9889,3.9887,3.9885,3.9958,3.9963,3.9967,0,0,0,0,0,0,0,0,0,0,0,0,0,3.9736,3.9662,3.9839,3.9837,3.9837,3.9917,3.9919,3.992,3.9892,3.9889,3.9887,3.9884,3.9957,3.9962,3.9968,4.0053,0,0,3.9984,3.9986,0,0,0,0,0,0,0,0,3.9732,3.9743,3.9836,3.9837,3.9838,3.9892,3.9882,3.9964,3.9892,3.9871,3.9886,3.9883,3.9939,3.9946,3.9966,4.0057,4.006,3.9985,3.9988,3.999,3.9992,0,0,0,0,0,0,0,3.9726,3.9739,3.987,3.9837,3.9838,3.9829,3.9837,3.9897,3.9918,3.9872,3.9871,3.9881,3.9939,3.9961,3.9967,4.0061,3.9984,3.9989,3.9992,3.9995,4.0224,4.0226,0,0,0,0,0,0,3.9722,3.9735,3.9868,3.9872,3.9777,3.9834,3.9844,3.9877,3.9918,3.9921,3.9883,3.9879,3.9953,3.9961,3.997,4.0072,3.999,3.9995,3.9998,4.0221,4.0224,4.0227,0,0,0,0,0,0,3.9718,3.9734,3.9864,3.9803,3.9819,3.984,3.9878,3.988,3.9902,3.9926,3.9928,3.9902,3.9951,3.9962,4.0033,4.0074,3.9998,4.0002,4.0218,4.0222,4.0226,4.0277,0,0,0,0,0,0,3.9713,3.9733,3.9767,3.9804,3.9823,3.9929,3.9881,3.9883,3.9912,3.9908,3.9944,3.9948,3.995,4.0025,4.0038,4.008,4.0007,4.0214,4.022,4.0225,4.0272,4.0282,4.0292,0,0,0,0,0,3.9706,3.9777,3.9769,3.9785,3.9867,3.9931,3.9941,3.9944,3.9916,3.9949,3.9964,3.9946,4.0067,4.0032,4.0047,4.0091,4.0211,4.0218,4.0224,4.0267,4.028,4.0291,0,0,0,0,0,0,3.9742,3.9782,3.9773,3.9859,3.9892,3.9926,3.9969,3.9958,3.9998,3.9993,3.9992,4.0001,4.0073,4.0089,4.0049,4.0175,4.0135,4.0144,4.0162,4.0175,4.0185,4.0179,4.0011,0,0,0,0,0,3.976,3.9812,3.9843,3.9915,3.9932,3.9948,3.9976,3.9975,4.0009,4.0022,4.0042,4.0073,4.0118,4.0147,4.019,4.0274,4.028,4.0311,4.0321,4.0329,4.0337,4.0381,4.0395,4.0249,4.0249,4.0248,0,0,3.9798,3.9826,3.9858,3.9923,3.9949,3.9999,3.996,4.0015,4.0052,4.0029,4.0098,4.0113,4.0148,4.0225,4.026,4.0241,4.0379,4.0337,4.0344,4.0347,4.0389,4.0403,4.0415,4.0253,4.0252,4.0251,0,0,3.9892,3.9919,3.9982,4.0009,4.0049,4.0058,4.0073,4.0109,4.0119,4.0188,4.0172,4.0214,4.0292,4.0317,4.034,4.0442,4.0427,4.0456,4.0508,4.0551,4.0563,4.0573,4.0608,4.0621,4.0464,4.0464,4.0464,0,3.9933,4.0011,4.0015,4.0073,4.0101,4.0084,4.0147,4.0171,4.0222,4.0241,4.0218,4.0315,4.0337,4.0419,4.0444,4.0464,4.0479,4.0452,4.0561,4.0571,4.0581,4.0615,4.0628,4.0468,4.0467,4.0467,4.0467,0,4.0059,4.0113,4.0159,4.0211,4.0244,4.0303,4.0313,4.0346,4.0342,4.0353,4.0422,4.0448,4.0495,4.0515,4.0511,4.0596,4.0583,4.0561,4.052,4.0598,4.063,4.0643,4.0472,4.0471,4.047,4.0469,0,0,4.0179,4.0232,4.0248,4.0271,4.0313,4.0354,4.0411,4.0459,4.0487,4.0521,4.0568,4.0634,4.0614,4.064,4.0638,4.0676,4.0754,4.0649,4.065,4.0667,4.0848,4.0864,4.0879,4.0744,4.0747,4.0749,4.0845,0,4.0276,4.038,4.0384,4.0477,4.0526,4.0511,4.056,4.059,4.0602,4.0643,4.0655,4.0701,4.0672,4.0687,4.0724,4.0737,4.079,4.073,4.0786,4.0788,4.0778,4.0896,4.0913,4.1003,4.0857,4.0859,4.0861,0,4.0403,4.0445,4.0543,4.0578,4.0598,4.0643,4.0687,4.0727,4.076,4.0765,4.0794,4.0787,4.0843,4.0801,4.0876,4.0835,4.0858,4.0868,4.0871,4.0876,4.0829,4.0903,4.1032,4.1045,4.0881,4.0879,4.0878,0,4.048,4.0559,4.0629,4.0649,4.0691,4.0723,4.0741,4.0771,4.0799,4.0836,4.0854,4.0897,4.092,4.0952,4.0955,4.0924,4.1031,4.0989,4.1035,4.1035,4.1059,4.1057,4.1192,4.1074,4.1074,4.1074,4.1073,0,4.0588,4.0648,4.0664,4.0706,4.0773,4.0776,4.0841,4.0857,4.0884,4.0927,4.0915,4.0956,4.0958,4.0999,4.1002,4.1063,4.1074,4.1078,4.1078,4.1079,4.1079,4.1094,4.1088,4.1077,4.1076,4.1076,4.1075,0,4.0685,4.0698,4.0772,4.0806,4.0816,4.0863,4.0891,4.093,4.094,4.0995,4.1008,4.1024,4.1071,4.1078,4.1132,4.1134,4.1208,4.1201,4.1198,4.1197,4.1242,4.1238,4.1391,4.1411,4.1281,4.1282,4.1283,0,4.0753,4.0799,4.0839,4.0868,4.0889,4.0936,4.0965,4.0969,4.0999,4.1039,4.1073,4.112,4.1157,4.1233,4.1247,4.1288,4.1283,4.1333,4.1289,4.1288,4.1282,4.128,4.1283,4.1342,4.1343,4.1345,4.1345,0,4.0872,4.0876,4.0919,4.0965,4.1001,4.1036,4.107,4.1094,4.1102,4.1136,4.1185,4.1214,4.1271,4.1316,4.1357,4.1373,4.136,4.136,4.1372,4.1374,4.1369,4.1372,4.1221,4.1356,4.1355,4.1354,4.1354,4.1353,4.0956,4.0996,4.103,4.1079,4.1105,4.1136,4.1175,4.119,4.1232,4.128,4.1279,4.1333,4.1362,4.1415,4.1434,4.1475,4.1458,4.1476,4.1481,4.1485,4.149,4.1364,4.1482,4.1482,4.1481,4.1481,4.1481,0,4.1073,4.1095,4.1139,4.1188,4.1225,4.1212,4.1248,4.1279,4.1328,4.1357,4.1394,4.145,4.1494,4.1512,4.1554,4.1583,4.1578,4.1593,4.1591,4.1595,4.1503,4.1487,4.1597,4.1597,4.1597,4.1597,4.1597,4.1597,4.1139,4.1207,4.1215,4.1294,4.1314,4.1368,4.1389,4.1417,4.1441,4.1504,4.1542,4.1554,4.1578,4.1622,4.166,4.1664,4.168,4.1698,4.1699,4.1613,4.1601,4.159,4.1576,4.1702,4.1702,4.1788,4.1789,4.1789]}]]